Location: Monrovia
(34.7865°N, 86.7139°W)
Time: 15:12:38
(UTC+00:00)

Cosmos 468 Rocket - Pass Details

Date: 14 July 2020
Orbit: 743 x 780 km, 74.0° (Epoch: 12 August)

Event Time Altitude Azimuth Distance (km) Brightness Sun altitude
Rises 09:17:41 0° 338° (NNW) 3,265 7.5 -15.6°
Reaches altitude 10° 09:20:06 10° 334° (NNW) 2,336 6.7 -15.2°
Maximum altitude 09:25:18 58° 257° (WSW) 906 4.1 -14.4°
Drops below altitude 10° 09:30:29 10° 179° (S) 2,322 6.1 -13.6°
Sets 09:32:53 0° 175° (S) 3,244 6.9 -13.2°
